Date String (YYYY-MM-DD hh:mm:ss) UTC,Instrument flags,Ambient pressure (hPa),Sample flow (lpm),Bypass flow (lpm),Sample temperature (°C),Ambient temperature (°C),ASC tube jacket temperature (°C),LED temperature (°C),Box temperature (°C),Sample RH (%),Span deviation,Mass concentration (μg/m³),Mass concentration (μg/m³),Mass concentration (μg/m³)
DateTimeUTC,F1_M11,P_M11,Q1_M11,Q2_M11,T1_M11,T2_M11,T3_M11,T4_M11,T5_M11,U1_M11,ZSPAN_M11,X0_M11,X2_M11,X1_M11
2022-02-23 22:00:00,,0822.3,5.00,0.00,23.1,22.2,00.0,32.1,24.8,03.1,-000.2,0007.58,0004.92,0004.60
2022-02-23 22:01:00,,0822.3,5.01,0.00,23.0,22.2,00.0,32.0,24.8,03.1,-000.4,0007.52,0004.91,0004.61
2022-02-23 22:02:00,,0822.4,5.00,0.00,23.0,22.1,00.0,32.0,24.8,03.1,-000.7,0007.54,0004.93,0004.63
2022-02-23 22:03:00,,0822.4,4.99,0.00,23.0,22.1,00.0,32.0,24.8,03.1,-000.4,0007.47,0004.92,0004.64
2022-02-23 22:04:00,,0822.4,4.99,0.00,23.0,22.1,00.0,32.0,24.8,03.1,-000.3,0007.44,0004.91,0004.65
2022-02-23 22:05:00,,0822.3,5.00,0.00,23.0,22.1,00.0,32.0,24.8,03.1,-000.3,0007.45,0004.92,0004.65
2022-02-23 22:06:00,,0822.3,5.00,0.00,23.0,22.1,00.0,32.0,24.8,03.1,-000.2,0007.54,0004.96,0004.66
2022-02-23 22:07:00,,0822.3,5.00,0.00,23.0,22.7,00.0,32.0,24.9,03.2,-000.2,0007.65,0005.01,0004.68
2022-02-23 22:08:00,,0822.3,5.01,0.00,23.1,23.3,00.0,32.0,25.0,03.1,0000.0,0007.66,0005.02,0004.68
2022-02-23 22:09:00,,0822.3,4.99,0.00,23.2,23.3,00.0,32.1,25.1,03.0,0000.0,0007.60,0005.01,0004.69
2022-02-23 22:10:00,,0822.3,5.00,0.00,23.2,23.2,00.0,32.1,25.1,03.0,0000.0,0007.50,0004.99,0004.68
2022-02-23 22:11:00,,0822.3,5.00,0.00,23.2,23.0,00.0,32.1,25.1,03.0,0000.0,0007.47,0004.99,0004.69
2022-02-23 22:12:00,,0822.2,5.00,0.00,23.2,22.8,00.0,32.1,25.0,03.0,0000.0,0007.54,0005.02,0004.69
2022-02-23 22:13:00,,0822.1,5.00,0.00,23.2,22.7,00.0,32.1,25.0,03.0,0000.0,0007.63,0005.03,0004.69
2022-02-23 22:14:00,,0822.1,5.00,0.00,23.2,22.6,00.0,32.1,25.0,03.0,0000.0,0007.71,0005.07,0004.70
2022-02-23 22:15:00,,0822.2,5.01,0.00,23.2,22.5,00.0,32.1,25.0,03.1,0000.0,0007.85,0005.12,0004.72
2022-02-23 22:16:00,,0822.3,4.99,0.00,23.2,22.4,00.0,32.1,24.9,03.1,0000.0,0007.83,0005.12,0004.73
2022-02-23 22:17:00,,0822.3,5.00,0.00,23.1,22.4,00.0,32.1,24.9,03.1,0000.0,0007.81,0005.12,0004.75
2022-02-23 22:18:00,,0822.3,4.99,0.00,23.1,22.3,00.0,32.1,24.9,03.1,0000.0,0007.73,0005.11,0004.76
2022-02-23 22:19:00,,0822.3,5.01,0.00,23.1,22.3,00.0,32.1,24.9,03.0,0000.0,0007.77,0005.14,0004.79
2022-02-23 22:20:00,,0822.3,4.99,0.00,23.1,22.2,00.0,32.0,24.9,03.0,0001.1,0007.84,0005.17,0004.80
2022-02-23 22:21:00,,0822.2,4.99,0.00,23.1,22.2,00.0,32.0,24.9,03.1,0000.4,0007.81,0005.16,0004.82
2022-02-23 22:22:00,,0822.2,5.01,0.00,23.0,22.2,00.0,32.0,24.8,03.1,0000.3,0007.84,0005.16,0004.83
2022-02-23 22:23:00,,0822.3,5.01,0.00,23.0,22.1,00.0,32.0,24.8,03.1,0001.9,0007.84,0005.17,0004.84
2022-02-23 22:24:00,,0822.2,4.99,0.00,23.0,22.1,00.0,32.0,24.8,03.1,0001.8,0007.79,0005.18,0004.87
2022-02-23 22:25:00,,0822.1,4.99,0.00,23.0,22.1,00.0,32.0,24.8,03.1,0001.7,0007.93,0005.18,0004.87
2022-02-23 22:26:00,,0821.9,5.02,0.00,23.0,22.1,00.0,32.0,24.8,03.1,0001.2,0007.92,0005.16,0004.86
2022-02-23 22:27:00,,0821.9,4.99,0.00,22.9,22.0,00.0,32.0,24.8,03.1,0001.4,0007.91,0005.14,0004.85
2022-02-23 22:28:00,,0821.8,4.99,0.00,22.9,22.0,00.0,32.0,24.7,03.1,0001.2,0007.94,0005.14,0004.83
2022-02-23 22:29:00,,0822.0,5.01,0.00,23.0,22.4,00.0,32.0,24.8,03.1,0000.8,0007.96,0005.12,0004.80
2022-02-23 22:30:00,,0822.0,4.98,0.00,23.1,23.1,00.0,32.0,24.9,03.1,0000.4,0007.94,0005.10,0004.78
2022-02-23 22:31:00,,0822.1,5.01,0.00,23.2,23.7,00.0,32.0,25.1,03.1,0000.0,0007.90,0005.08,0004.78
2022-02-23 22:32:00,,0822.2,4.99,0.00,23.2,23.6,00.0,32.1,25.2,03.1,0000.0,0007.90,0005.07,0004.77
2022-02-23 22:33:00,,0822.2,5.00,0.00,23.3,23.4,00.0,32.1,25.2,03.1,0000.0,0007.91,0005.07,0004.77
2022-02-23 22:34:00,,0822.3,5.00,0.00,23.3,23.2,00.0,32.1,25.1,03.1,0000.0,0008.07,0005.09,0004.76
2022-02-23 22:35:00,,0822.2,5.02,0.00,23.2,23.0,00.0,32.1,25.1,03.0,0000.0,0008.18,0005.09,0004.76
2022-02-23 22:36:00,,0822.1,5.00,0.00,23.2,22.9,00.0,32.1,25.0,03.0,0000.0,0007.98,0005.09,0004.77
2022-02-23 22:37:00,,0822.1,5.00,0.00,23.2,22.7,00.0,32.1,25.0,03.1,0000.0,0007.88,0005.08,0004.79
2022-02-23 22:38:00,,0822.1,5.00,0.00,23.2,22.6,00.0,32.1,25.0,03.0,0000.4,0007.91,0005.10,0004.80
2022-02-23 22:39:00,,0822.0,5.00,0.00,23.2,22.5,00.0,32.1,25.0,03.0,0000.0,0007.98,0005.11,0004.84
2022-02-23 22:40:00,,0822.1,5.01,0.00,23.2,22.4,00.0,32.1,25.0,03.1,0000.5,0007.99,0005.14,0004.88
2022-02-23 22:41:00,,0822.1,4.99,0.00,23.1,22.4,00.0,32.1,24.9,03.1,0002.9,0008.05,0005.20,0004.93
2022-02-23 22:42:00,,0822.1,5.02,0.00,23.1,22.3,00.0,32.1,24.9,03.1,0002.7,0008.14,0005.25,0004.95
2022-02-23 22:43:00,,0822.1,5.00,0.00,23.1,22.3,00.0,32.1,24.9,03.1,0002.3,0008.19,0005.29,0004.99
2022-02-23 22:44:00,,0822.0,4.99,0.00,23.1,22.2,00.0,32.0,24.9,03.1,0002.6,0008.17,0005.32,0005.03
2022-02-23 22:45:00,,0822.0,5.02,0.00,23.1,22.2,00.0,32.0,24.9,03.1,0002.6,0008.08,0005.35,0005.05
2022-02-23 22:46:00,,0821.8,4.99,0.00,23.0,22.2,00.0,32.0,24.9,03.0,0002.7,0007.99,0005.38,0005.09
2022-02-23 22:47:00,,0821.8,5.01,0.00,23.0,22.1,00.0,32.0,24.8,03.0,0002.6,0008.05,0005.42,0005.12
2022-02-23 22:48:00,,0821.8,5.00,0.00,23.0,22.1,00.0,32.0,24.8,03.0,0002.3,0008.16,0005.45,0005.14
2022-02-23 22:49:00,,0821.9,4.99,0.00,23.0,22.1,00.0,32.0,24.8,03.1,0001.8,0008.53,0005.48,0005.16
2022-02-23 22:50:00,,0821.9,5.00,0.00,23.0,22.1,00.0,32.0,24.8,03.0,0001.6,0008.49,0005.50,0005.18
2022-02-23 22:51:00,,0821.8,5.01,0.00,23.0,22.0,00.0,32.0,24.8,03.1,0001.2,0008.53,0005.53,0005.18
2022-02-23 22:52:00,,0821.9,4.99,0.00,22.9,22.0,00.0,32.0,24.7,03.1,0000.2,0008.55,0005.54,0005.19
2022-02-23 22:53:00,,0821.9,4.99,0.00,22.9,22.0,00.0,32.0,24.7,03.1,0000.0,0008.50,0005.53,0005.19
2022-02-23 22:54:00,,0821.8,5.00,0.00,23.0,22.3,00.0,32.0,24.7,03.1,0000.0,0008.51,0005.54,0005.19
2022-02-23 22:55:00,,0822.0,5.01,0.00,23.1,22.9,00.0,32.0,24.9,03.0,0000.0,0008.56,0005.54,0005.19
2022-02-23 22:56:00,,0821.9,4.99,0.00,23.2,23.5,00.0,32.0,25.1,03.0,0000.0,0008.55,0005.53,0005.19
2022-02-23 22:57:00,,0821.9,5.01,0.00,23.2,23.4,00.0,32.1,25.2,03.0,0000.4,0008.54,0005.53,0005.19
2022-02-23 22:58:00,,0821.9,5.00,0.00,23.3,23.2,00.0,32.1,25.2,03.0,0000.8,0008.57,0005.53,0005.18
2022-02-23 22:59:00,,0821.9,5.00,0.00,23.2,23.1,00.0,32.1,25.1,03.0,0000.1,0008.68,0005.53,0005.16
